Volver al catálogo

STARLINK-37826

ActivoComunicacionesVLEO
NORAD 100050·PAYLOAD·🇺🇸 United States

Lanzado Jul 14, 2026 desde Cape Canaveral Space Force Station

Loading…

Próximos Pases (próximas 24 horas)

TLE

ActualizadoSource: Space-Track

Época: Sep 14, 2026, 18:58 UTC

1 A0050U 26161Y   26257.79045066  .00023078  00000-0  69155-3 0  9999
2 A0050  53.1607  24.4175 0000311 123.5703 236.5329 15.34422687  9739

Sigue STARLINK-37826 en tiempo real con AllMySat

Download on the App Store